Flag Weather past 2 weeks in Prenzlau, Brandenburg, Germany

Now
37 °F

Passing clouds.


Feels Like: 37 °F
Forecast: 33 / 41 °F
Wind: 2 mph from South

Location: Szczecin Airport

Current Time: Nov 21, 2014 at 8:36:15 PM

Latest Report: Nov 21, 2014 at 8:00 PM


Visibility: 5 mi

Pressure: 30.30 "Hg

Humidity: 100%

Dew point: 37 °F

Location of PrenzlauLocation

Historic Weather in Prenzlau — Graph

°F

Prenzlau temperature yesterday

Maximum temperature yesterday: 41 °F (at 12:00 PM)
Minimum temperature yesterday: 36 °F (at 4:00 AM)
Average temperature yesterday: 39 °F

Past Weeks' High & Low Weather Summary

 TemperatureHumidityPressure
High57 °F (Nov 12, 12:30 PM)100% (Nov 7, 2:00 AM)30.36 "Hg (Nov 7, 2:00 AM)
Low36 °F (Nov 9, 6:30 AM)67% (Nov 8, 12:30 PM)29.68 "Hg (Nov 16, 12:30 PM)
Average45 °F93%29.96 "Hg
* Reported Nov 6 7:00 PM — Nov 21 7:30 PM, Prenzlau, Weather by CustomWeather, © 2014

Note: Actual official high and low records may vary slightly from our data, if they occured in-between our weather recording intervals... More about our weather records

Advertising

Prenzlau weather history for previous 24 hours

 ConditionsComfort  
Time TempWeatherWind HumidityBarometerVisibility
7:30 PM
Nov 21
39 °FPassing clouds.3 mph93%30.30 "HgN/A
7:00 PM41 °FPartly cloudy.2 mph93%30.30 "HgN/A
6:30 PM41 °FPartly cloudy.2 mph93%30.30 "HgN/A
6:00 PM41 °FPartly cloudy.3 mph93%30.30 "HgN/A
5:30 PM41 °FPartly cloudy.2 mph93%30.30 "Hg5 mi
5:00 PM41 °FPassing clouds.2 mph93%30.30 "Hg5 mi
4:30 PM43 °FPassing clouds.2 mph87%30.30 "Hg5 mi
4:00 PM43 °FPassing clouds.3 mph93%30.30 "Hg5 mi
3:30 PM45 °FPartly sunny.No wind87%30.30 "HgN/A
3:00 PM45 °FBroken clouds.1 mph93%30.30 "Hg4 mi
2:30 PM45 °FPartly sunny.No wind93%30.30 "Hg4 mi
2:00 PM45 °FBroken clouds.1 mph93%30.30 "Hg4 mi
1:30 PM45 °FBroken clouds.3 mph93%30.30 "Hg4 mi
1:00 PM45 °FBroken clouds.1 mph93%30.30 "Hg4 mi
12:30 PM45 °FFog.No wind93%30.30 "Hg3 mi
12:00 PM43 °FFog.1 mph100%30.30 "Hg2 mi
11:30 AM43 °FFog.No wind100%30.30 "Hg1 mi
11:00 AM43 °FFog.2 mph100%30.30 "Hg1 mi
10:30 AM43 °FFog.2 mph93%30.30 "Hg1 mi
10:00 AM41 °FFog.2 mph100%30.30 "Hg1 mi
9:30 AM41 °FFog.No wind100%30.30 "Hg1 mi
9:00 AM41 °FFog.No wind100%30.30 "Hg1 mi
8:30 AM41 °FFog.No wind93%30.30 "Hg1 mi
8:00 AM41 °FFog.No wind93%30.30 "Hg1 mi
7:30 AM39 °FFog.1 mph100%30.30 "Hg1 mi
7:00 AM39 °FFog.1 mph100%30.30 "Hg1 mi
6:30 AM39 °FFog.No wind100%30.30 "Hg1 mi
6:00 AM39 °FFog.1 mph100%30.30 "Hg1 mi
5:30 AM39 °FFog.No wind100%30.30 "Hg1 mi
5:00 AM39 °FFog.No wind100%30.30 "Hg1 mi
4:30 AM39 °FFog.No wind100%30.30 "Hg1 mi
4:00 AM39 °FFog.No wind100%30.30 "Hg2 mi
3:30 AM39 °FFog.No wind100%30.30 "Hg2 mi
3:00 AM39 °FFog.No wind100%30.30 "Hg2 mi
2:30 AM39 °FFog.No wind100%30.30 "Hg2 mi
2:00 AM39 °FFog.No wind100%30.30 "Hg2 mi
1:30 AM39 °FFog.No wind93%30.30 "Hg2 mi
1:00 AM39 °FFog.No wind93%30.30 "Hg2 mi
12:30 AM39 °FFog.No wind100%30.33 "Hg2 mi
12:00 AM39 °FFog.No wind93%30.33 "Hg2 mi
11:30 PM
Nov 20
39 °FFog.No wind100%30.33 "Hg2 mi
11:00 PM39 °FFog.No wind100%30.33 "Hg2 mi
10:30 PM39 °FFog.No wind100%30.33 "Hg2 mi
10:00 PM39 °FFog.No wind100%30.33 "Hg2 mi
9:30 PM39 °FFog.No wind100%30.33 "Hg2 mi
9:00 PM39 °FFog.No wind100%30.33 "Hg2 mi
8:30 PM39 °FFog.No wind100%30.33 "Hg3 mi
8:00 PM39 °FFog.No wind100%30.33 "Hg2 mi
Weather by CustomWeather, © 2014

See weather overviewHow to use our weather pages